User: anonymous   Login
Location: Unspecified
(38.9917°N, 0.0000°E)
Time: 00:56:38
(UTC+00:00)
Language:

Max Valier Satellite - Orbit

View from above orbital plane
View from above orbital plane
View from above satellite
View from above satellite

Ground track
Ground track

The orbit data is extracted from the following two-line orbital elements,

1 42778U 17036P   19236.71794163  .00000444  00000-0  22369-4 0  9992
2 42778  97.3491 292.8904 0012081 357.5641   2.5534 15.22093116120439
Epoch (UTC): 24 August 2019 17:13:50
Eccentricity: 0.0012081
inclination: 97.3491°
perigee height: 491 km
apogee height: 508 km
right ascension of ascending node: 292.8904°
argument of perigee: 357.5641°
revolutions per day: 15.22093116
mean anomaly at epoch: 2.5534°
orbit number at epoch: 12043

The dashed part of the orbit path shows where the satellite is in the earth's shadow,  

DLR